Location: Paddlesworth
(51.1000°N, 1.1333°E)
Time: 08:28:44
(UTC+00:00)

Cosmos 1869 Rocket - Pass Details

Date: 11 May 2021
Orbit: 605 x 633 km, 82.5° (Epoch: 20 June)

Event Time Altitude Azimuth Distance (km) Brightness Sun altitude
Rises 22:07:28 0° 346° (NNW) 2,876 8.6 -17.1°
Reaches altitude 10° 22:09:43 10° 342° (NNW) 1,966 7.4 -17.2°
Maximum altitude 22:13:58 54° 265° (W) 739 4.0 -17.5°
Enters shadow 22:16:05 27° 199° (SSW) 1,175 4.6 -17.7°
